Change the Weather History Date:

Friday, May 2, 2014

  Actual Average Record
Temperature  
Mean Temperature 48 °F -  
Max Temperature 53 °F 62 °F 68 °F (1997)
Min Temperature 42 °F 43 °F 33 °F (1999)
Degree Days  
Heating Degree Days 18    
Moisture  
Dew Point 39 °F    
Average Humidity 68    
Maximum Humidity 93    
Minimum Humidity 41    
Precipitation  
Precipitation 0.00 in 0.08 in - ()
Sea Level Pressure  
Sea Level Pressure 30.09 in    
Wind  
Wind Speed 10 mph ()    
Max Wind Speed 18 mph    
Max Gust Speed -    
Visibility 6.8 miles    
Events Rain    
Averages and records for this station are not official NWS values.
T = Trace of Precipitation, MM = Missing Value Source: Averaged Metar Reports

Daily Weather History Graph

Daily Weather History Graph

Search for Another Location

Airport or City:

Trip Planner

Search our weather history database for the weather conditions in past years. The results will help you decide how hot, cold, wet, or windy it might be!

Date:

Astronomy

May. 02, 2014 Rise Set
Actual Time 5:58 AM CEST 9:03 PM CEST
Civil Twilight 5:18 AM CEST 9:44 PM CEST
Nautical Twilight 4:25 AM CEST 10:38 PM CEST
Astronomical Twilight 3:14 AM CEST 11:50 PM CEST
Moon 8:13 AM CEST (5/2) No Moon Set
Length of Visible Light 16h 26m
Length of Day
15h 05m
Waxing Crescent, 11% of the Moon is Illuminated
May 2
Waxing Crescent
May 7
First Quarter
May 14
Full
May 21
Last Quarter
May 28
New

Hourly Weather History & Observations

Time (CEST) Temp. Windchill Dew Point Humidity Pressure Visibility Wind Dir Wind Speed Gust Speed Precip Events Conditions
12:00 AM 49 °F - 46 °F 86% 29.93 in 10 mi NE 8.9 mph - -   Partly Cloudy
12:25 AM 48.2 °F - 44.6 °F 87% 29.92 in 6.2 mi ENE 15.0 mph - N/A   Overcast
12:55 AM 48.2 °F - 44.6 °F 87% 29.92 in 6.2 mi NE 10.4 mph - N/A Rain Drizzle
1:00 AM 47 °F - 44 °F 86% 29.95 in 15 mi NE 8.9 mph - - Rain Light Drizzle
1:25 AM 46.4 °F 41.5 °F 44.6 °F 93% 29.95 in 6.2 mi NE 10.4 mph - N/A Rain Light Rain
1:55 AM 46.4 °F 41.5 °F 42.8 °F 87% 29.95 in 6.2 mi NE 10.4 mph - N/A Rain Light Rain
2:00 AM 46 °F - 43 °F 86% 29.96 in 10 mi ENE 11.2 mph - - Rain Drizzle
2:25 AM 46.4 °F 41.1 °F 42.8 °F 87% 29.95 in 6.2 mi ENE 11.5 mph - N/A   Drizzle
2:55 AM 46.4 °F 41.9 °F 42.8 °F 87% 29.95 in 6.2 mi NE 9.2 mph - N/A   Overcast
3:00 AM 47 °F - 44 °F 84% 29.97 in 16 mi NE 8.9 mph - - Rain Drizzle
3:25 AM 46.4 °F 42.4 °F 42.8 °F 87% 29.95 in 6.2 mi NE 8.1 mph - N/A   Overcast
3:55 AM 46.4 °F 40.7 °F 39.2 °F 76% 29.95 in 6.2 mi NE 12.7 mph - N/A   Overcast
4:00 AM 46 °F - 40 °F 72% 29.97 in 28 mi ENE 13.4 mph - -   Partly Cloudy
4:25 AM 46.4 °F 41.1 °F 39.2 °F 76% 29.95 in 6.2 mi NE 11.5 mph - N/A   Overcast
4:55 AM 46.4 °F 41.9 °F 39.2 °F 76% 29.95 in 6.2 mi NE 9.2 mph - N/A   Overcast
5:00 AM 46 °F - 40 °F 72% 29.98 in 28 mi NNE 6.7 mph - -   Overcast
5:25 AM 46.4 °F 42.4 °F 39.2 °F 76% 29.98 in 6.2 mi NNE 8.1 mph - N/A   Overcast
5:55 AM 46.4 °F 42.4 °F 41.0 °F 81% 29.98 in 6.2 mi NNE 8.1 mph - N/A   Overcast
6:00 AM 47 °F - 41 °F 71% 29.99 in 25 mi NNE 8.9 mph - -   Overcast
6:25 AM 46.4 °F 42.9 °F 41.0 °F 81% 29.98 in 6.2 mi NNE 6.9 mph - N/A   Overcast
6:55 AM 48.2 °F - 41.0 °F 76% 30.01 in 6.2 mi NE 9.2 mph - N/A   Overcast
7:00 AM 47 °F - 41 °F 73% 30.01 in 25 mi NNE 8.9 mph - -   Overcast
7:25 AM 46.4 °F 41.5 °F 41.0 °F 81% 30.01 in 6.2 mi NNE 10.4 mph - N/A   Overcast
7:55 AM 46.4 °F 40.7 °F 39.2 °F 76% 30.01 in 6.2 mi NNE 12.7 mph - N/A   Overcast
8:00 AM 46 °F - 39 °F 67% 30.04 in 14 mi NNE 8.9 mph - -   Partly Cloudy
8:25 AM 46.4 °F 42.4 °F 39.2 °F 76% 30.04 in 6.2 mi NNE 8.1 mph - N/A   Overcast
8:55 AM 48.2 °F - 41.0 °F 76% 30.04 in 6.2 mi NE 10.4 mph - N/A   Mostly Cloudy
9:00 AM 48 °F - 41 °F 68% 30.06 in 28 mi NNE 8.9 mph - - Rain Rain
9:25 AM 48.2 °F - 39.2 °F 71% 30.04 in 6.2 mi NE 11.5 mph - N/A   Overcast
9:55 AM 48.2 °F - 39.2 °F 71% 30.06 in 6.2 mi NE 10.4 mph - N/A   Overcast
10:00 AM 48 °F - 39 °F 61% 30.08 in 22 mi NE 11.2 mph - -   Partly Cloudy
10:25 AM 48.2 °F - 39.2 °F 71% 30.06 in 6.2 mi NE 11.5 mph - N/A   Unknown
10:55 AM 50.0 °F - 37.4 °F 62% 30.06 in 6.2 mi NE 15.0 mph - N/A   Partly Cloudy
11:00 AM 50 °F - 38 °F 52% 30.10 in 22 mi NE 15.7 mph - -   Partly Cloudy
11:25 AM 51.8 °F - 37.4 °F 58% 30.09 in 6.2 mi NE 13.8 mph - N/A   Mostly Cloudy
11:55 AM 50.0 °F - 35.6 °F 58% 30.09 in 6.2 mi NE 13.8 mph - N/A   Overcast
12:00 PM 51 °F - 36 °F 45% 30.11 in 22 mi NNE 13.4 mph - -   Partly Cloudy
12:25 PM 50.0 °F - 35.6 °F 58% 30.09 in 6.2 mi NNE 13.8 mph - N/A   Overcast
12:55 PM 50.0 °F - 37.4 °F 62% 30.09 in 6.2 mi NNE 12.7 mph - N/A   Overcast
1:00 PM 51 °F - 36 °F 45% 30.12 in 25 mi NNE 13.4 mph - -   Partly Cloudy
1:25 PM 51.8 °F - 37.4 °F 58% 30.09 in 6.2 mi NNE 15.0 mph - N/A   Overcast
1:55 PM 51.8 °F - 37.4 °F 58% 30.12 in 6.2 mi NNE 16.1 mph - N/A   Overcast
2:00 PM 51 °F - 38 °F 51% 30.14 in 22 mi NNE 15.7 mph - -   Partly Cloudy
2:25 PM 51.8 °F - 37.4 °F 58% 30.12 in 6.2 mi NNE 15.0 mph - N/A   Mostly Cloudy
2:55 PM 51.8 °F - 39.2 °F 62% 30.12 in 6.2 mi NE 13.8 mph - N/A   Mostly Cloudy
3:00 PM 52 °F - 38 °F 47% 30.14 in 25 mi NNE 17.9 mph - -   Overcast
3:25 PM 51.8 °F - 35.6 °F 54% 30.12 in 6.2 mi NNE 17.3 mph - N/A   Overcast
3:55 PM 51.8 °F - 37.4 °F 58% 30.12 in 6.2 mi NE 13.8 mph - N/A   Scattered Clouds
4:00 PM 52 °F - 36 °F 43% 30.15 in 22 mi NE 13.4 mph - -   Overcast
4:25 PM 51.8 °F - 37.4 °F 58% 30.12 in 6.2 mi NNE 15.0 mph - N/A   Scattered Clouds
4:55 PM 51.8 °F - 35.6 °F 54% 30.15 in 6.2 mi NE 13.8 mph - N/A   Partly Cloudy
5:00 PM 52 °F - 35 °F 41% 30.16 in 22 mi NE 15.7 mph - -   Overcast
5:25 PM 51.8 °F - 33.8 °F 50% 30.15 in 6.2 mi NE 13.8 mph - N/A   Unknown
5:55 PM 51.8 °F - 35.6 °F 54% 30.15 in 6.2 mi NNE 13.8 mph - N/A   Partly Cloudy
6:00 PM 51 °F - 35 °F 43% 30.18 in 25 mi NNE 13.4 mph - -   Mostly Cloudy
6:25 PM 51.8 °F - 37.4 °F 58% 30.15 in 6.2 mi NNE 12.7 mph - N/A   Partly Cloudy
6:55 PM 50.0 °F - 39.2 °F 66% 30.18 in 6.2 mi NNE 17.3 mph - N/A   Unknown
7:00 PM 50 °F - 39 °F 55% 30.20 in 25 mi NNE 13.4 mph - -   Overcast
7:25 PM 50.0 °F - 39.2 °F 66% 30.18 in 6.2 mi NNE 12.7 mph - N/A   Unknown
7:55 PM 50.0 °F - 39.2 °F 66% 30.21 in 6.2 mi NNE 13.8 mph - N/A   Unknown
8:00 PM 50 °F - 39 °F 55% 30.22 in 25 mi NNE 15.7 mph - -   Partly Cloudy
8:25 PM 48.2 °F - 39.2 °F 71% 30.21 in 6.2 mi NNE 13.8 mph - N/A   Unknown
8:55 PM 48.2 °F - 39.2 °F 71% 30.21 in 6.2 mi NNE 10.4 mph - N/A   Unknown
9:00 PM 47 °F - 38 °F 63% 30.25 in 28 mi North 11.2 mph - -   Scattered Clouds
9:25 PM 46.4 °F 41.9 °F 39.2 °F 76% 30.24 in 6.2 mi NNE 9.2 mph - N/A   Unknown
9:55 PM 46.4 °F 42.4 °F 37.4 °F 71% 30.24 in 6.2 mi North 8.1 mph - N/A   Unknown
10:00 PM 45 °F - 38 °F 68% 30.27 in 28 mi North 8.9 mph - -  
10:25 PM 44.6 °F 40.7 °F 37.4 °F 76% 30.24 in 6.2 mi NNE 6.9 mph - N/A   Unknown
10:55 PM 44.6 °F 40.7 °F 39.2 °F 81% 30.27 in 6.2 mi North 6.9 mph - N/A   Unknown
11:00 PM 44 °F - 38 °F 74% 30.28 in 25 mi North 6.7 mph - -  
11:25 PM 42.8 °F 38.6 °F 39.2 °F 87% 30.27 in 6.2 mi North 6.9 mph - N/A   Unknown
11:55 PM 44.6 °F 40.2 °F 39.2 °F 81% 30.27 in 6.2 mi North 8.1 mph - N/A   Unknown